[[{"header":{"parameterUnit":"m.s-1","parameterCategory":1,"la1":30.2992,"la2":30.254,"lo1":-89.0895,"lo2":-89.0443,"dy":0.0025,"dx":0.0025,"nx":19,"ny":19,"refTime":"2026-03-18T03:00:00:Z","depth":0,"parameterNumber":2,"parameterNumberName":"U-component_of_WINDS"},"data":[0,0,0,-2.6074,-2.6078,-2.6236,-2.6236,-2.6435,-2.6437,0,0,0,0,0,0,0,0,0,0,0,-2.6027,-2.6029,-2.6074,-2.6078,-2.6235,-2.6236,-2.6435,-2.6437,0,0,0,0,0,0,0,0,0,0,0,-2.6027,-2.6028,-2.603,-2.6079,-2.6235,-2.6236,-2.6434,-2.6316,0,0,0,0,0,0,0,0,0,0,-2.6163,-2.612,-2.6028,-2.603,-2.6079,-2.6235,-2.6236,-2.631,-2.6324,-2.6363,0,-2.6399,0,-2.6421,-2.645,-2.6451,0,0,0,-2.6078,-2.6109,-2.6152,-2.603,-2.6081,-2.6235,-2.6164,-2.6318,-2.6333,-2.638,-2.6402,-2.641,-2.6425,-2.6452,-2.6453,-2.6682,-2.6683,0,0,-2.6069,-2.6056,-2.6142,-2.6162,-2.6139,-2.6159,-2.6169,-2.6327,-2.6349,-2.6403,-2.6414,-2.6428,-2.6453,-2.6454,-2.6681,-2.6682,0,0,0,-2.6044,-2.605,-2.6088,-2.6153,-2.6182,-2.6164,-2.6175,-2.6342,-2.6356,-2.6416,-2.643,-2.6454,-2.6456,-2.668,-2.6681,-2.672,0,0,0,-2.6039,-2.6035,-2.6085,-2.6078,-2.6179,-2.6265,-2.6187,-2.6345,-2.6363,-2.6429,-2.6454,-2.6458,-2.6678,-2.668,-2.6716,-2.674,0,0,0,-2.6017,-2.6032,-2.6055,-2.6077,-2.6144,-2.6262,-2.6285,-2.6349,-2.6372,-2.6451,-2.6459,-2.6678,-2.668,-2.6713,-2.6735,-2.6795,0,0,0,-2.599,-2.6089,-2.6056,-2.6171,-2.6143,-2.6286,-2.6284,-2.6392,-2.6464,-2.6455,-2.6679,-2.6681,-2.6712,-2.6732,-2.6791,-2.6842,-2.6862,0,0,-2.6107,-2.6102,-2.6171,-2.6146,-2.6291,-2.6263,-2.6413,-2.6493,-2.6513,-2.6624,-2.663,-2.6717,-2.6735,-2.6794,-2.6983,-2.6998,0,0,0,-2.6203,-2.6253,-2.6294,-2.6362,-2.6425,-2.648,-2.6538,-2.6567,-2.6662,-2.6568,-2.6757,-2.6767,-2.6803,-2.6827,-2.6841,-2.6871,-2.6692,-2.6692,-2.6692,-2.6349,-2.6369,-2.6483,-2.6521,-2.6588,-2.6645,-2.67,-2.6749,-2.675,-2.6794,-2.6827,-2.6939,-2.6967,-2.6978,-2.7009,-2.6857,-2.6857,-2.6857,-2.6857,-2.6521,-2.6593,-2.6591,-2.6701,-2.672,-2.6812,-2.6871,-2.6868,-2.6956,-2.6916,-2.6949,-2.6903,-2.6994,-2.7023,-2.686,-2.686,-2.6859,-2.6859,-2.6859,-2.6618,-2.6655,-2.6688,-2.6788,-2.6861,-2.6896,-2.698,-2.6995,-2.701,-2.7042,-2.7077,-2.7076,-2.7076,-2.7058,-2.7058,-2.7059,-2.7059,-2.7059,-2.7059,-2.6704,-2.674,-2.6809,-2.6883,-2.6927,-2.6988,-2.7045,-2.7089,-2.7141,-2.7145,-2.7146,-2.7141,-2.7001,-2.6964,-2.7066,-2.7064,-2.7064,-2.7063,-2.7063,-2.6869,-2.6833,-2.694,-2.6984,-2.707,-2.7141,-2.7159,-2.7246,-2.7285,-2.7325,-2.7313,-2.7208,-2.7204,-2.7193,-2.7163,-2.731,-2.731,-2.731,-2.731,-2.6949,-2.6948,-2.7059,-2.7128,-2.7198,-2.7225,-2.7342,-2.7386,-2.7427,-2.7451,-2.7432,-2.7394,-2.7382,-2.7385,-2.7371,-2.7342,-2.7532,-2.7532,-2.7533,-2.705,-2.7057,-2.7154,-2.7193,-2.7261,-2.7318,-2.7428,-2.7506,-2.7545,-2.7542,-2.747,-2.7461,-2.7399,-2.7378,-2.7372,-2.7349,-2.7298,0,0]},{"header":{"parameterUnit":"m.s-1","parameterCategory":1,"la1":30.2992,"la2":30.254,"lo1":-89.0895,"lo2":-89.0443,"dy":0.0025,"dx":0.0025,"nx":19,"ny":19,"refTime":"2026-03-18T03:00:00:Z","depth":0,"parameterNumber":3,"parameterNumberName":"V-component_of_WINDS"},"data":[0,0,0,-3.0687,-3.069,-3.0818,-3.0819,-3.0992,-3.0993,0,0,0,0,0,0,0,0,0,0,0,-3.0655,-3.0656,-3.0687,-3.069,-3.0818,-3.0819,-3.0991,-3.0993,0,0,0,0,0,0,0,0,0,0,0,-3.0654,-3.0656,-3.0657,-3.0691,-3.0818,-3.0819,-3.0991,-3.0891,0,0,0,0,0,0,0,0,0,0,-3.0765,-3.0741,-3.0655,-3.0657,-3.0691,-3.0818,-3.0819,-3.0886,-3.0897,-3.0937,0,-3.0975,0,-3.0987,-3.1005,-3.1006,0,0,0,-3.0686,-3.0731,-3.0761,-3.0658,-3.0693,-3.0818,-3.0759,-3.0892,-3.0905,-3.0952,-3.0977,-3.0983,-3.099,-3.1006,-3.1007,-3.1254,-3.1255,0,0,-3.0679,-3.0681,-3.0752,-3.0769,-3.075,-3.0755,-3.0763,-3.09,-3.0927,-3.0978,-3.0987,-3.0993,-3.1008,-3.1009,-3.1252,-3.1254,0,0,0,-3.0661,-3.0676,-3.0702,-3.0762,-3.0785,-3.0759,-3.0768,-3.0921,-3.0929,-3.0989,-3.0995,-3.1009,-3.1011,-3.1251,-3.1253,-3.1321,0,0,0,-3.0657,-3.0666,-3.0699,-3.0702,-3.0783,-3.0855,-3.0787,-3.092,-3.0935,-3.0994,-3.1009,-3.1013,-3.1249,-3.1252,-3.1316,-3.1354,0,0,0,-3.0644,-3.0664,-3.0685,-3.0701,-3.0757,-3.0852,-3.0868,-3.0923,-3.0939,-3.1006,-3.1013,-3.1248,-3.1251,-3.1312,-3.1346,-3.1419,0,0,0,-3.0631,-3.0745,-3.0686,-3.0814,-3.0756,-3.0894,-3.0867,-3.097,-3.1036,-3.101,-3.1249,-3.1253,-3.131,-3.1342,-3.1414,-3.148,-3.1507,0,0,-3.0775,-3.0762,-3.0837,-3.0788,-3.0938,-3.0874,-3.1033,-3.1092,-3.1096,-3.1201,-3.1207,-3.1318,-3.1346,-3.1417,-3.1663,-3.1685,0,0,0,-3.0883,-3.0937,-3.0976,-3.1039,-3.1087,-3.113,-3.1164,-3.1185,-3.1274,-3.1151,-3.1364,-3.138,-3.1422,-3.1454,-3.1473,-3.1508,-3.1267,-3.1267,-3.1267,-3.109,-3.1089,-3.1213,-3.1228,-3.1289,-3.1323,-3.1372,-3.1406,-3.1388,-3.1438,-3.1469,-3.1618,-3.1655,-3.1669,-3.1707,-3.1504,-3.1505,-3.1505,-3.1505,-3.13,-3.1376,-3.1348,-3.1459,-3.1457,-3.155,-3.1586,-3.1569,-3.1655,-3.1595,-3.1632,-3.1567,-3.1694,-3.1726,-3.151,-3.1509,-3.1509,-3.1508,-3.1508,-3.1435,-3.1471,-3.1495,-3.1585,-3.1655,-3.1666,-3.1749,-3.1744,-3.1741,-3.1777,-3.1809,-3.1808,-3.1806,-3.1793,-3.1793,-3.1794,-3.1794,-3.1795,-3.1795,-3.1565,-3.159,-3.1661,-3.172,-3.1759,-3.181,-3.1844,-3.1883,-3.1924,-3.1914,-3.1914,-3.1891,-3.1706,-3.166,-3.1803,-3.1802,-3.1801,-3.18,-3.1799,-3.1778,-3.1729,-3.1838,-3.1878,-3.1946,-3.2015,-3.2008,-3.2086,-3.2117,-3.2158,-3.2127,-3.1991,-3.1977,-3.1962,-3.1924,-3.2127,-3.2127,-3.2127,-3.2127,-3.1892,-3.1884,-3.1994,-3.2057,-3.2118,-3.2123,-3.2246,-3.2273,-3.2293,-3.2312,-3.2282,-3.2231,-3.2216,-3.2211,-3.219,-3.2154,-3.2411,-3.2412,-3.2412,-3.2022,-3.202,-3.2126,-3.2145,-3.2197,-3.2243,-3.2358,-3.2431,-3.2444,-3.2423,-3.2327,-3.2315,-3.2232,-3.2205,-3.2182,-3.2151,-3.2084,0,0]}]]